Location: Lynch Observatory
(39.9540°N, 75.1861°W)
Time: 16:02:46
(UTC-04:00)

UKube-1 - Visible Passes

Search period start: 22 April 2024 00:00
Search period end: 02 May 2024 00:00
Orbit: 588 x 591 km, 98.3° (Epoch: 22 April)

Date Brightness Start Highest point End Pass type
(mag) Time Alt. Az. Time Alt. Az. Time Alt. Az.
22 Apr ? 02:37:46 10° N 02:38:50 16° NNW 02:38:50 16° NNW visible
23 Apr ? 02:45:43 10° N 02:46:49 16° NNW 02:46:49 16° NNW visible
24 Apr ? 01:18:06 10° NE 01:18:15 11° NE 01:18:15 11° NE visible
24 Apr ? 02:53:40 10° NNW 02:54:46 15° NNW 02:54:46 15° NNW visible
25 Apr ? 01:25:41 10° NNE 01:26:10 13° NE 01:26:10 13° NE visible
25 Apr ? 03:01:40 10° NNW 03:02:41 14° NNW 03:02:41 14° NNW visible
26 Apr ? 01:33:16 10° NNE 01:34:03 15° NNE 01:34:03 15° NNE visible
26 Apr ? 03:09:40 10° NNW 03:10:35 13° NW 03:10:35 13° NW visible
27 Apr ? 01:40:52 10° NNE 01:41:54 17° NNE 01:41:54 17° NNE visible
27 Apr ? 03:17:46 10° NNW 03:18:26 12° NW 03:18:26 12° NW visible
28 Apr ? 01:48:26 10° NNE 01:49:44 19° NNE 01:49:44 19° NNE visible
28 Apr ? 03:26:01 10° NW 03:26:15 10° NW 03:26:15 10° NW visible
29 Apr ? 01:56:01 10° NNE 01:57:31 21° NNE 01:57:31 21° NNE visible
30 Apr ? 02:03:35 10° NNE 02:05:16 24° NNE 02:05:16 24° NNE visible
01 May ? 02:11:09 10° N 02:12:59 25° N 02:12:59 25° N visible
